FW4376 Weather Reports


time (UTC)temp
C
wind
direction
speed
KPH
gust
KPH
rain 1hr
cm
rain 24hr
cm
rain mn
cm
humidity
%
barometer
mb
20260502221516 26 73 0.0 8.0 0.00 0.00 0.00 36 1019.2
20260502220015 26 109 1.6 6.4 0.00 0.00 0.00 35 1019.2
20260502214514 26 288 1.6 8.0 0.00 0.00 0.00 36 1019.3
20260502213013 26 256 3.2 6.4 0.00 0.00 0.00 35 1019.5
20260502211526 26 13 1.6 6.4 0.00 0.00 0.00 37 1019.7
20260502210015 26 255 0.0 6.4 0.00 0.00 0.00 36 1019.8
20260502204508 25 9 1.6 12.9 0.00 0.00 0.00 37 1019.8
20260502203007 25 326 3.2 9.7 0.00 0.00 0.00 38 1020.0
20260502201507 25 245 3.2 12.9 0.00 0.00 0.00 38 1020.3
20260502200005 25 307 3.2 11.3 0.00 0.00 0.00 38 1020.6
20260502194503 25 48 1.6 9.7 0.00 0.00 0.00 38 1020.8
20260502193003 25 44 1.6 6.4 0.00 0.00 0.00 38 1021.0
20260502191502 25 63 1.6 6.4 0.00 0.00 0.00 38 1021.1
20260502190100 24 110 1.6 9.7 0.00 0.00 0.00 38 1021.3
20260502184602 24 186 1.6 8.0 0.00 0.00 0.00 40 1021.4
20260502183108 25 278 1.6 6.4 0.00 0.00 0.00 38 1021.6
20260502181556 24 103 0.0 8.0 0.00 0.00 0.00 38 1021.8
20260502163050 22 353 1.6 9.7 0.00 0.00 0.00 39 1022.6
20260502161543 22 23 1.6 8.0 0.00 0.00 0.00 41 1022.5
20260502151536 20 31 0.0 4.8 0.00 0.00 0.00 53 1022.3
20260502123050 10 231 0.0 1.6 0.00 0.00 0.00 92 1020.9
20260502121549 10 231 0.0 1.6 0.00 0.00 0.00 92 1020.6
20260502114601 10 231 0.0 0.0 0.00 0.00 0.00 91 1020.2
20260502113047 10 231 0.0 1.6 0.00 0.00 0.00 91 1019.9
20260502111550 10 231 0.0 1.6 0.00 0.00 0.00 92 1019.9
20260502110041 10 231 0.0 1.6 0.00 0.00 0.00 93 1019.8
20260502104547 10 231 0.0 1.6 0.00 0.00 0.00 92 1019.4
20260502103038 10 231 0.0 1.6 0.00 0.00 0.00 92 1019.2
20260502101605 10 231 0.0 1.6 0.00 0.00 0.00 92 1019.2
20260502071525 10 121 0.0 0.0 0.00 0.00 0.00 91 1019.1
20260502070043 10 121 0.0 0.0 0.00 0.00 0.00 91 1019.3
20260502064522 11 121 0.0 1.6 0.00 0.00 0.00 92 1019.3
20260502063022 11 121 0.0 0.0 0.00 0.00 0.00 91 1019.2
20260502061521 10 121 0.0 0.0 0.00 0.00 0.00 90 1019.2
20260502060019 11 121 0.0 0.0 0.00 0.00 0.00 90 1019.3
20260502054517 11 121 0.0 0.0 0.00 0.00 0.00 89 1019.1
20260502053014 11 121 0.0 0.0 0.00 0.00 0.00 89 1019.2
20260502051512 12 121 0.0 0.0 0.00 0.00 0.00 90 1019.2
20260502050012 12 121 0.0 0.0 0.00 0.00 0.00 89 1019.1
20260502044512 12 121 0.0 0.0 0.00 0.00 0.00 88 1019.1
20260502043008 12 121 0.0 0.0 0.00 0.00 0.00 87 1019.0
20260502041507 12 121 0.0 0.0 0.00 0.00 0.00 86 1019.0
20260502040005 12 121 0.0 0.0 0.00 0.00 0.00 86 1019.1
20260502034505 13 121 0.0 1.6 0.00 0.00 0.00 85 1019.1
20260502033002 13 120 0.0 0.0 0.00 0.00 0.00 84 1018.9
20260502031502 13 120 0.0 0.0 0.00 0.00 0.00 83 1018.8
20260502030107 13 120 0.0 0.0 0.00 0.00 0.00 83 1018.8
20260502024559 13 120 0.0 0.0 0.00 0.03 0.00 82 1018.7
20260502023123 13 120 0.0 0.0 0.00 0.03 0.00 81 1018.5
20260502021556 14 120 0.0 0.0 0.00 0.03 0.00 81 1018.2
20260502020106 14 120 0.0 0.0 0.00 0.03 0.00 80 1017.8
20260502014555 15 120 0.0 1.6 0.00 0.03 0.00 80 1017.5
20260502013103 15 120 0.0 1.6 0.00 0.03 0.00 79 1017.2
20260502011606 15 120 0.0 0.0 0.00 0.03 0.00 77 1017.1
20260502010053 15 120 0.0 1.6 0.00 0.03 0.00 76 1017.0
20260502004609 15 120 0.0 1.6 0.00 0.03 0.00 75 1016.9
20260502003056 16 120 0.0 1.6 0.00 0.03 0.00 75 1016.7
20260502001607 16 115 0.0 1.6 0.00 0.03 0.00 74 1016.4
20260502000100 16 146 0.0 1.6 0.00 0.03 0.00 74 1016.1
20260501234604 16 120 0.0 1.6 0.00 0.03 0.00 74 1016.2
20260501233057 16 95 0.0 1.6 0.00 0.03 0.00 75 1016.1
20260501231553 16 105 0.0 1.6 0.00 0.03 0.00 74 1015.7
20260501230050 16 141 0.0 1.6 0.00 0.03 0.00 71 1015.7
20260501224548 16 111 0.0 3.2 0.00 0.03 0.00 68 1015.5
20260501223050 16 44 0.0 3.2 0.00 0.03 0.00 67 1015.5